Regional Weather Roundup
Issued by NWS Grand Forks, ND

Home | Current Version | Previous Version | Text Only | Print | Product List | Glossary Off
Versions: 1 2 3 4 5 6 7 8 9 10 11 12 13 14 15 16 17 18 19 20 21 22 23 24 25 26 27 28 29 30 31 32 33 34 35 36 37 38 39 40 41 42 43 44 45 46 47 48 49 50

000
ASUS43 KFGF 141931
RWRFGF
PRAIRIE TO PINES  WEATHER ROUNDUP
NATIONAL WEATHER SERVICE EASTERN NORTH DAKOTA/GRAND FORKS ND
200 PM CDT SUN SEP 14 2014

 **SATELLITE DATA USED TO AUGMENT SKY COVER AT AUTOMATED STATIONS**
 *****  WEATHER ACROSS EASTERN NORTH DAKOTA  *****

CITY           SKY/WX    TMP DP  RH WIND       PRES   REMARKS
GRAND FORKS    CLOUDY    55  43  63 NW9       30.11S
GRAND FRKS AFB CLOUDY    56  43  62 N8G16     30.12S
GRAND FRKS NWS   N/A     61 N/A N/A N2          N/A
DEVILS LAKE    CLOUDY    54  36  50 NW13      30.12S
FARGO          PTSUNNY   58  44  60 NW9       30.12S
WAHPETON ARPT  CLOUDY    55  41  58 NW8       30.13F
$$

 ***** WEATHER ACROSS CENTRAL AND WESTERN NORTH DAKOTA  *****

CITY           SKY/WX    TMP DP  RH WIND       PRES   REMARKS
BISMARCK       MOSUNNY   57  36  45 VRB5      30.17F
MINOT          CLOUDY    52  35  52 N5        30.15F
JAMESTOWN      CLOUDY    51  42  71 NW10      30.15F
MINOT AFB      PTSUNNY   52  36  54 NW8       30.15F
GARRISON         N/A     55  35  47 N6        30.16F
WILLISTON      SUNNY     58  32  37 NE6       30.17F
DICKINSON      SUNNY     55  33  43 N6        30.15F
HETTINGER      CLOUDY    54  32  43 E9        30.17F
$$

 *****  OTHER AIRPORT OBSERVATIONS IN OUR AREA  *****

CITY           SKY/WX    TMP DP  RH WIND       PRES   REMARKS
WALHALLA         N/A     54  41  62 N9        30.11S
GRAFTON AIRPOR MOCLDY    55  41  58 N7        30.10S
VALLEY CITY AR FAIR      55  41  58 W10G16    30.13F
CANDO          CLOUDY    54  37  54 N8        30.13F
CAVALIER APRT  CLOUDY    55  41  58 NW12      30.10S
GWINNER        PTCLDY    57  43  58 NW8       30.14F
ROLLA          CLOUDY    50  34  53 NW8       30.15S
 ***** THE ABOVE OBSERVATIONS ARE NON NWS ARE NOT QUALITY
       CONTROLLED AND MAY MIS-REPORT RAIN FOR SNOW...
$$

  *****  WEATHER ACROSS NORTHERN MINNESOTA  *****

CITY           SKY/WX    TMP DP  RH WIND       PRES   REMARKS
FLAG ISLAND    PTSUNNY   55  43  62 W7        30.01S
WARROAD        PTSUNNY   57  46  67 W12       30.04F
ROSEAU         MOSUNNY   57  46  67 W9        30.05F
HALLOCK        SUNNY     57  45  62 N12G17    30.08S
THF RVR FALLS  CLOUDY    52  46  82 NW7       30.10S
BAUDETTE       MOSUNNY   57  46  66 NW10      30.04R
WASKISH        CLOUDY    54  45  71 CALM      30.05S
CROOKSTON      CLOUDY    54  45  71 NW9       30.12S
STEPHEN NDAWN    N/A     57  46  67 NW8         N/A
GREENBUSH NDAW   N/A     55  46  71 W7          N/A
$$
  *****  WEATHER ACROSS CENTRAL AND WEST MINNESOTA  *****

CITY           SKY/WX    TMP DP  RH WIND       PRES   REMARKS
FOSSTON        CLOUDY    50  43  76 W5        30.12S
BEMIDJI        CLOUDY    53  42  68 W12       30.09R
PARK RAPIDS    CLOUDY    50  43  77 W14       30.11R
ELBOW LAKE     CLOUDY    54  42  65 NW7       30.13F
WADENA         CLOUDY    54  43  66 W7        30.11F
DETROIT LAKES  CLOUDY    52  45  76 W10       30.13S
MOORHEAD       PTSUNNY   57  46  67 NW6       30.12F
FERGUS FALLS   CLOUDY    55  39  54 NW7       30.13F
MORRIS MN      CLOUDY    59  43  55 NW8       30.13F
STAPLES        CLOUDY    54  41  62 W9        30.11S
$$
  *****  WEATHER ELSEWHERE ACROSS MINNESOTA  *****

CITY           SKY/WX    TMP DP  RH WIND       PRES   REMARKS
DULUTH         CLOUDY    56  40  55 W16G25    30.04R
INTRNTL FALLS  PTSUNNY   54  49  83 NW10      30.01R
ELY            CLOUDY    54  41  62 W13G20    29.99S
CLOQUET        PTSUNNY   57  39  51 W12G20    30.05S
WHEATON        CLOUDY    55  41  58 W7        30.15F
BRAINERD       MOSUNNY   55  41  59 NW12      30.11R
HIBBING        CLOUDY    53  42  66 W9        30.05R
ALEXANDRIA     CLOUDY    55  42  61 W10       30.14S
SAINT CLOUD    MOSUNNY   61  40  45 W15       30.12R
MINNEAPOLIS    PTSUNNY   65  39  38 W13       30.12S
$$

  *****  WEATHER ACROSS SOUTH DAKOTA  *****

CITY           SKY/WX    TMP DP  RH WIND       PRES   REMARKS
SIOUX FALLS    PTSUNNY   62  43  49 CALM      30.15F
BROOKINGS      NOT AVBL
WATERTOWN      CLOUDY    56  38  50 W6        30.15F
HURON          CLOUDY    58  39  49 NE3       30.16F
SISSETON         N/A     59  42  53 NW8       30.13F
ABERDEEN       CLOUDY    57  42  57 NW7       30.16F
MITCHELL       CLOUDY    60  40  47 CALM      30.16F
PIERRE         CLOUDY    55  38  52 VRB5      30.15F
MOBRIDGE       CLOUDY    54  40  59 NW5       30.15F
RAPID CITY     CLOUDY    51  36  56 SE8       30.14F
$$

  *****  SOME WEATHER IN NEARBY STATES *****

CITY           SKY/WX    TMP DP  RH WIND       PRES   REMARKS
GLASGOW MT     CLOUDY    54  35  48 SE10      30.15F
GREAT FALLS MT SUNNY     59  37  44 S3        30.11S
CHEYENNE WY    MOSUNNY   80  31  16 W22G32    30.10F
SCOTTSBLUFF NE MOSUNNY   60  49  66 VRB5      30.05F
OMAHA NE       PTSUNNY   69  49  48 S9        30.15F
DES MOINES IA  MOSUNNY   68  48  48 SW10      30.19F
DAVENPORT IA   SUNNY     65  44  46 SW12      30.24F
CHICAGO IL     MOSUNNY   62  42  47 W10       30.24F
EAU CLAIRE WI  MOSUNNY   63  45  51 W14G24    30.10S
LA CROSSE WI   MOSUNNY   69  47  45 SW18      30.11F
$$

  *****  SOME NATIONAL WEATHER *****

CITY           SKY/WX    TMP DP  RH WIND       PRES   REMARKS
LA GUARDIA NY  PTSUNNY   68  44  42 NW7       30.20F
RALEIGH NC     CLOUDY    68  59  73 NE5       30.25F
ATLANTA GA     CLOUDY    74  67  78 NE10      30.19S
NEW ORLEANS LA MOSUNNY   86  71  60 N12       30.08F HX  91
OKLAHOMA CITY  PTSUNNY   76  59  55 S10       30.18F
ALBUQUERQUE NM MOSUNNY   75  53  46 W8        30.22F
SALT LAKE CITY MOSUNNY   84  34  16 SE6       30.04F
LOS ANGELES CA MOSUNNY   83  63  50 W9        29.76S
BOISE ID       SUNNY     76  33  21 CALM      29.99F
SEATTLE WA     SUNNY     75  48  38 VRB3      29.92S
$$

*** WEATHER ACROSS MANITOBA...SASKATCHEWAN AND ONTARIO ***
                ***ONTARIO***

CITY           SKY/WX    TMP DP  RH WIND       PRES   REMARKS
GERALDTON      CLOUDY    46  46 100 S9        29.93F FOG
THUNDER BAY    PTSUNNY   57  43  58 W17       29.92S
SIOUX LOOKOUT  PTSUNNY   55  43  62 N6        29.94R
TORONTO        PTSUNNY   57  41  54 S7        30.27F
BIG TROUT LK   CLOUDY    43  39  87 N5        29.98F
PICKLE LAKE    PTSUNNY   54  36  50 CALM      29.91F
DRYDEN         MOSUNNY   55  41  58 NW6       29.96S
KENORA         PTSUNNY   54  43  66 VRB7      30.00
$$
                *** MANITOBA***

CITY           SKY/WX    TMP DP  RH WIND       PRES   REMARKS
BRANDON        PTSUNNY   52  36  54 NW15      30.14S
DAUPHIN        CLOUDY    52  36  54 VRB2      30.12S
ISLAND LAKE    CLOUDY    48  36  61 CALM      30.03F
PILOT MOUND      N/A     52  37  58 NW7         N/A
THE PAS        PTSUNNY   57  30  35 W13G21    30.02F
THOMPSON       CLOUDY    52  32  46 W9        29.97F
WINNIPEG       PTSUNNY   55  41  58 NW13G21   30.08S
LYNN LAKE      PTSUNNY   54  32  43 MISG      29.92F
CHURCHILL      PTSUNNY   48  39  71 W8        29.85F
GILLAM         MOSUNNY   50  30  46 SW14G20   29.96F
$$
                ***SASKATCHEWAN***

CITY           SKY/WX    TMP DP  RH WIND       PRES   REMARKS
ESTEVAN        MOSUNNY   54  34  47 N7        30.17S
KINDERSLEY     PTSUNNY   59  37  44 SW8       30.09F
LLOYDMINSTER   MOSUNNY   61  37  41 VRB2      30.05F
PRINCE ALBERT  MOSUNNY   59  37  44 SW14      30.06F
REGINA         PTSUNNY   55  36  47 W12       30.14F
YORKTON        SUNNY     52  34  50 NW3       30.13F
N. BATTLEFORD  CLOUDY    57  37  47 SW3       30.09
LA RONGE       MOSUNNY   59  34  38 NW13      30.00F
SASKATOON      PTSUNNY   59  37  44 SW9       30.11F
SWIFT CURRENT    N/A     57  34  41 W9        30.10
$$
NOTE: THESE ARE AUTOMATED STATIONS WITH LIMITED QUALITY CONTROL
      "FAIR" INDICATES FEW OR NO CLOUDS BELOW 12,000 FEET WITH NO
      SIGNIFICANT WEATHER AND/OR OBSTRUCTIONS TO VISIBILITY.
      SKY/WX - SKY CONDITION AND SIGNIFICANT WEATHER.
      TMP - AIR TEMPERATURE.    DP   - DEWPOINT TEMPERATURE.
      RH  - RELATIVE HUMIDITY.  PRES - PRESSURE.
      HX  - HEAT INDEX.         WCI  - WIND CHILL INDEX.
$


USA.gov is the U.S. government's official web portal to all federal, state and local government web resources and services.